Location: Kalberh�ni
(46.4610°N, 7.2453°E)
Time: 04:52:05
(UTC+00:00)

Cosmos 1802 Rocket - Pass Details

Date: 25 October 2021
Orbit: 955 x 1010 km, 82.9° (Epoch: 05 December)

Event Time Altitude Azimuth Distance (km) Brightness Sun altitude
Rises 18:55:58 0° 180° (S) 3,621 6.9 -26.2°
Reaches altitude 10° 18:58:27 10° 178° (S) 2,678 6.2 -26.7°
Enters shadow 18:59:38 17° 177° (S) 2,240 5.7 -26.9°
Exits shadow 19:05:49 56° 32° (NNE) 1,130 4.1 -27.9°
Drops below altitude 10° 19:10:41 10° 12° (NNE) 2,705 6.3 -28.7°
Sets 19:13:13 0° 11° (N) 3,660 7.0 -29.1°
